ATLAS 5 CENTAUR DEB, 46638

Orbit data source: Space-Track

ATLAS 5 CENTAUR DEB, 46638 is space debris in HEO originally from a launch on Wed, 17 Sep 2014 UTC launched from the Air Force Eastern Test Range (AFETR). Debris objects in space refer to the collection of defunct objects orbiting the Earth. Examples of debris include non-operational satellites, rocket bodies, and fragments generated from explosions, collisions, or faulty payload assembly.

Loading next visibility...
Identifier
46638, 2014-055CN
Orbit
HEO
Country
Flag of USUS
Related business
Flag of USUnited Launch Alliance/Lockheed Martin (US)
Manufacturer
Unknown
Mission
Spacecraft
Bus & Motor
Unknown
Mass
Unknown
Launch date (UTC)
2014-09-17 (12 years ago)
Launch vehicle
Unknown
Launch site
Air Force Eastern Test Range (AFETR)
Object type
Payload
Rocket body
Debris
Shape & HBR
Unknown shape, 1.1 m
Radar Cross Section
Medium (>0.1 m² and <1 m²)

Expand to show TLE details & history
Last TLE update: 1 day ago

TLE from 1 day ago
0 ATLAS 5 CENTAUR DEB
1 46638U 14055CN  26235.19317210 -.00000037  00000-0  00000-0 0  9995
2 46638  21.1581  87.6042 5179138 271.4343  32.4883  1.92360495 41307
Epoch: 2026-08-23T04:38Z
TLE epoch observation values (Epoch: 2026-08-23T04:38:10.069Z)
Latitude
-0°
Longitude
46.65831°
Altitude
13,371.056 km
Speed
5.077 km/s
True Right ascension
05h 50m 46s
True Declination
0° 00' 00"
Sunlit
Object was in daylight at epoch
Visualization orbit readout
Latitude
Unknown
Longitude
Unknown
Altitude
Unknown
Speed
Unknown
Apparent Right ascension
Unknown
Apparent Declination
Unknown
Sunlit
N/A
Visualization observer readout
Local Sidereal Time
21:13:05
Azimuth
Unknown
Elevation
Unknown
Doppler factor
Unknown
Orbital elements
Apogee altitude
35,079.536 km
Perigee altitude
6,788.732 km
Semi-major axis
27,312.271 km
Eccentricity
0.51791
Inclination
21.1581°
RAAN
87.6042°
Arg. of periapsis
271.4343°
True anomaly
88.486°
Mean anomaly
32.4883°
Eccentric anomaly
57.52124°
Mean motion
0.48085 °/min
Orbital period
748.68 mins
BSTAR
0
Loading maneuver chart data...
Computing Atmospheric mass density...

Documentation

Showing up to 5 results
|